TimeEDT,TemperatureF,Dew PointF,Humidity,Sea Level PressureIn,VisibilityMPH,Wind Direction,Wind SpeedMPH,Gust SpeedMPH,PrecipitationIn,Events,Conditions,WindDirDegrees,DateUTC
12:52 AM,45.0,42.1,90,30.37,10.0,Calm,Calm,-,N/A,,Clear,0,2013-08-25 04:52:00
1:52 AM,43.0,39.9,89,30.36,10.0,Calm,Calm,-,N/A,,Clear,0,2013-08-25 05:52:00
2:52 AM,42.1,39.0,89,30.36,10.0,Calm,Calm,-,N/A,,Clear,0,2013-08-25 06:52:00
3:41 AM,41.0,37.4,87,30.36,10.0,Calm,Calm,-,N/A,,Scattered Clouds,0,2013-08-25 07:41:00
3:50 AM,41.0,37.4,87,30.37,10.0,Calm,Calm,-,N/A,,Mostly Cloudy,0,2013-08-25 07:50:00
3:52 AM,41.0,37.9,89,30.38,10.0,Calm,Calm,-,N/A,,Mostly Cloudy,0,2013-08-25 07:52:00
4:06 AM,41.0,37.4,87,30.37,10.0,Calm,Calm,-,N/A,,Scattered Clouds,0,2013-08-25 08:06:00
4:52 AM,39.9,37.0,89,30.39,10.0,Calm,Calm,-,0.01,,Clear,0,2013-08-25 08:52:00
5:19 AM,39.2,35.6,87,30.38,10.0,Calm,Calm,-,N/A,,Scattered Clouds,0,2013-08-25 09:19:00
5:28 AM,39.2,37.4,93,30.38,10.0,Calm,Calm,-,N/A,,Mostly Cloudy,0,2013-08-25 09:28:00
5:47 AM,39.2,37.4,93,30.38,1.8,Calm,Calm,-,N/A,,Overcast,0,2013-08-25 09:47:00
5:50 AM,39.2,37.4,93,30.39,0.8,Calm,Calm,-,N/A,,Overcast,0,2013-08-25 09:50:00
5:52 AM,39.9,37.9,93,30.40,0.8,Calm,Calm,-,N/A,,Overcast,0,2013-08-25 09:52:00
6:52 AM,41.0,39.0,93,30.41,0.5,Calm,Calm,-,N/A,Fog,Fog,0,2013-08-25 10:52:00
7:05 AM,41.0,39.2,93,30.40,1.2,Calm,Calm,-,N/A,,Overcast,0,2013-08-25 11:05:00
7:07 AM,42.8,39.2,87,30.40,5.0,Calm,Calm,-,N/A,,Overcast,0,2013-08-25 11:07:00
7:39 AM,44.6,42.8,93,30.39,8.0,Calm,Calm,-,N/A,,Scattered Clouds,0,2013-08-25 11:39:00
7:52 AM,46.9,44.1,90,30.40,10.0,Calm,Calm,-,N/A,,Partly Cloudy,0,2013-08-25 11:52:00
8:52 AM,55.9,50.0,80,30.40,10.0,Calm,Calm,-,N/A,,Clear,0,2013-08-25 12:52:00
9:52 AM,62.1,51.1,67,30.39,10.0,Calm,Calm,-,N/A,,Clear,0,2013-08-25 13:52:00
10:52 AM,70.0,53.1,55,30.36,10.0,Calm,Calm,-,N/A,,Clear,0,2013-08-25 14:52:00
11:52 AM,71.1,51.1,49,30.34,10.0,Variable,4.6,-,N/A,,Clear,0,2013-08-25 15:52:00
12:52 PM,73.0,48.9,42,30.31,10.0,Calm,Calm,-,N/A,,Clear,0,2013-08-25 16:52:00
1:52 PM,73.9,48.0,40,30.31,10.0,WNW,6.9,-,N/A,,Clear,290,2013-08-25 17:52:00
2:52 PM,75.0,46.0,36,30.28,10.0,West,4.6,-,N/A,,Clear,280,2013-08-25 18:52:00
3:52 PM,75.0,50.0,41,30.26,10.0,WSW,5.8,-,N/A,,Clear,240,2013-08-25 19:52:00
4:52 PM,75.0,48.9,40,30.25,10.0,WSW,4.6,-,N/A,,Clear,240,2013-08-25 20:52:00
5:52 PM,73.0,51.1,46,30.22,10.0,WSW,5.8,-,N/A,,Clear,250,2013-08-25 21:52:00
6:52 PM,70.0,55.9,61,30.20,10.0,Calm,Calm,-,N/A,,Clear,0,2013-08-25 22:52:00
7:52 PM,64.0,55.9,75,30.20,10.0,Calm,Calm,-,N/A,,Clear,0,2013-08-25 23:52:00
8:52 PM,60.1,55.0,83,30.19,10.0,Calm,Calm,-,N/A,,Clear,0,2013-08-26 00:52:00
9:52 PM,57.9,53.1,84,30.19,10.0,Calm,Calm,-,N/A,,Clear,0,2013-08-26 01:52:00
10:52 PM,57.9,54.0,87,30.17,10.0,Calm,Calm,-,N/A,,Clear,0,2013-08-26 02:52:00
11:52 PM,57.9,53.1,84,30.16,10.0,Calm,Calm,-,N/A,,Clear,0,2013-08-26 03:52:00